Location: Kearney
(40.6990°N, 99.0810°W)
Time: 05:59:21
(UTC-05:00)

SKYMED 2 - Pass Details

Date: 18 December 2017
Orbit: 621 x 623 km, 97.9° (Epoch: 23 May)

Event Time Altitude Azimuth Distance (km) Brightness Sun altitude
Exits shadow 18:15:40 - 24° (NNE) 2,192 6.0 -11.9°
Reaches altitude 10° 18:16:10 10° 27° (NNE) 2,000 5.7 -12.0°
Maximum altitude 18:20:18 43° 99° (E) 882 3.9 -12.7°
Drops below altitude 10° 18:24:25 10° 171° (S) 1,984 6.3 -13.4°
Sets 18:26:41 0° 178° (S) 2,885 7.2 -13.8°
